Location: New York
(40.7127°N, 74.0060°W)
Time: 17:56:41
(UTC-04:00)

UNISAT 6 - Pass Details

Date: 24 April 2024
Orbit: 593 x 667 km, 97.7° (Epoch: 27 May)

Event Time Altitude Azimuth Distance (km) Brightness Sun altitude
Rises 05:13:44 0° 179° (S) 2,931 ? -9.5°
Reaches altitude 10° 05:16:00 10° 184° (S) 2,014 ? -9.1°
Maximum altitude 05:20:16 50° 260° (W) 798 ? -8.4°
Drops below altitude 10° 05:24:28 10° 337° (NNW) 1,984 ? -7.7°
Sets 05:26:41 0° 342° (NNW) 2,882 ? -7.3°
